Trapani, Italy

9:41 PM CET on February 10, 2016 (GMT +0100)
Birgi Mil

Weather History for LICT - November, 2012

Change the Weather History Date:

Thursday, November 15, 2012

  Actual Average Record
Temperature  
Mean Temperature 62 °F -  
Max Temperature 65 °F 64 °F 77 °F (2005)
Min Temperature 59 °F 52 °F 44 °F (2011)
Degree Days  
Heating Degree Days 3    
Growing Degree Days 12 (Base 50)    
Moisture  
Dew Point 60 °F    
Average Humidity 90    
Maximum Humidity 94    
Minimum Humidity 82    
Precipitation  
Precipitation 0.71 in 0.09 in - ()
Sea Level Pressure  
Sea Level Pressure 29.97 in    
Wind  
Wind Speed 3 mph ()    
Max Wind Speed 23 mph    
Max Gust Speed 24 mph    
Visibility 6.1 miles    
Events Rain    
Averages and records for this station are not official NWS values.
T = Trace of Precipitation, MM = Missing Value Source: Averaged Metar Reports

Daily Weather History Graph

Daily Weather History Graph

Search for Another Location

Airport or City:

Trip Planner

Search our weather history database for the weather conditions in past years. The results will help you decide how hot, cold, wet, or windy it might be!

Date:

Astronomy

Nov. 15, 2012 Rise Set
Actual Time 6:50 AM CET 4:58 PM CET
Civil Twilight 6:22 AM CET 5:26 PM CET
Nautical Twilight 5:50 AM CET 5:57 PM CET
Astronomical Twilight 5:19 AM CET 6:29 PM CET
Moon 8:27 AM CET (11/15) 6:32 PM CET (11/15)
Length of Visible Light 11h 03m
Length of Day
10h 07m
Waxing Crescent, 4% of the Moon is Illuminated
Nov 15
Waxing Crescent
Nov 20
First Quarter
Nov 28
Full
Dec 6
Last Quarter
Dec 13
New

Hourly Weather History & Observations

Time (CET) Temp. Dew Point Humidity Pressure Visibility Wind Dir Wind Speed Gust Speed Precip Events Conditions
12:55 AM 64.4 °F 60.8 °F 88% 29.98 in 6.2 mi ESE 2.3 mph - N/A Rain Light Rain
1:00 AM 65 °F 61 °F 83% 30.00 in 10 mi ESE 2.3 mph - - Rain Light Rain
1:55 AM 64.4 °F 62.6 °F 94% 29.98 in 6.2 mi Calm Calm - N/A   Partly Cloudy
2:55 AM 62.6 °F 60.8 °F 94% 29.98 in 6.2 mi Calm Calm - N/A   Scattered Clouds
3:55 AM 62.6 °F 60.8 °F 94% 29.98 in 6.2 mi Calm Calm - N/A   Scattered Clouds
4:55 AM 62.6 °F 59.0 °F 88% 29.95 in 6.2 mi East 1.2 mph - N/A   Scattered Clouds
5:55 AM 62.6 °F 59.0 °F 88% 29.98 in 6.2 mi WSW 12.7 mph 24.2 mph N/A   Partly Cloudy
6:14 AM 59.0 °F 57.2 °F 94% 29.98 in 4.3 mi WSW 23.0 mph - N/A Rain Rain
6:55 AM 59.0 °F 57.2 °F 94% 29.98 in 6.2 mi West 12.7 mph - N/A Rain Light Rain
7:55 AM 60.8 °F 57.2 °F 88% 30.01 in 4.3 mi NW 9.2 mph - N/A Rain Rain
8:03 AM 60.8 °F 59.0 °F 94% 30.01 in 4.3 mi NW 6.9 mph - N/A Rain Rain
8:55 AM 59.0 °F 57.2 °F 94% 30.01 in 4.3 mi North 3.5 mph - N/A Rain Rain
9:29 AM 60.8 °F 59.0 °F 94% 30.01 in 6.2 mi Calm Calm - N/A Rain Rain
9:55 AM 60.8 °F 59.0 °F 94% 30.01 in 6.2 mi NNE 3.5 mph - N/A Rain Light Rain
10:55 AM 60.8 °F 59.0 °F 94% 29.98 in 6.2 mi ENE 1.2 mph - N/A Rain Light Rain
11:55 AM 60.8 °F 59.0 °F 94% 29.98 in 6.2 mi ESE 3.5 mph - N/A Rain Rain
12:55 PM 60.8 °F 59.0 °F 94% 29.95 in 6.2 mi NE 2.3 mph - N/A Rain Rain
1:00 PM 61 °F 58 °F 87% 29.96 in 7 mi NE 2.3 mph - - Rain Light Rain
1:55 PM 62.6 °F 60.8 °F 94% 29.92 in 6.2 mi North 1.2 mph - N/A   Scattered Clouds
2:55 PM 64.4 °F 60.8 °F 88% 29.92 in 6.2 mi North 3.5 mph - N/A   Scattered Clouds
3:55 PM 64.4 °F 60.8 °F 88% 29.92 in 6.2 mi North 2.3 mph - N/A   Scattered Clouds
4:55 PM 64.4 °F 60.8 °F 88% 29.92 in 6.2 mi NE 2.3 mph - N/A   Scattered Clouds
5:55 PM 64.4 °F 60.8 °F 88% 29.92 in 6.2 mi East 2.3 mph - N/A   Scattered Clouds
6:55 PM 64.4 °F 60.8 °F 88% 29.95 in 6.2 mi NE 2.3 mph - N/A   Scattered Clouds
7:00 PM 65 °F 61 °F 83% 29.95 in 7 mi NE 2.3 mph - -   Partly Cloudy
8:55 PM 64.4 °F 60.8 °F 88% 29.95 in 6.2 mi NNE 1.2 mph - N/A   Scattered Clouds
9:55 PM 64.4 °F 60.8 °F 88% 29.95 in 6.2 mi NE 2.3 mph - N/A   Scattered Clouds
10:55 PM 62.6 °F 57.2 °F 82% 29.95 in 6.2 mi Calm Calm - N/A   Scattered Clouds
11:55 PM 62.6 °F 59.0 °F 88% 29.95 in 6.2 mi NE 3.5 mph - N/A   Scattered Clouds